This is the latest recevied weather packets stored in our database for station/object KR0L-13. If no packets are shown the sender has not sent any weather packets the latest 10 day(s).
| Time | Temp. | Humidity | Pressure | Rain* | Wind** | Luminosity | Snow |
|---|---|---|---|---|---|---|---|
| 1777822222 | 20.56° C | 45% | 1014.6 hPa | 0 mm | - | - | - |
| 1777821622 | 20° C | 47% | 1014.6 hPa | 0 mm | - | - | - |
| 1777821022 | 19.44° C | 49% | 1014.8 hPa | 0 mm | - | - | - |
| 1777820422 | 18.33° C | 50% | 1014.9 hPa | 0 mm | - | - | - |
| 1777819822 | 18.33° C | 52% | 1014.9 hPa | 0 mm | - | - | - |
| 1777819222 | 17.78° C | 54% | 1014.9 hPa | 0 mm | - | - | - |
| 1777818621 | 17.22° C | 55% | 1014.8 hPa | 0 mm | - | - | - |
| 1777818022 | 16.67° C | 56% | 1014.9 hPa | 0 mm | - | - | - |
| 1777817422 | 16.11° C | 57% | 1014.9 hPa | 0 mm | - | - | - |
| 1777816821 | 15.56° C | 59% | 1015.2 hPa | 0 mm | - | - | - |
| 1777816222 | 15° C | 60% | 1015.3 hPa | 0 mm | - | - | - |
| 1777815622 | 14.44° C | 61% | 1015.3 hPa | 0 mm | - | - | - |
| 1777815021 | 13.89° C | 62% | 1015.7 hPa | 0 mm | - | - | - |
| 1777814422 | 13.33° C | 62% | 1015.7 hPa | 0 mm | - | - | - |
| 1777813821 | 13.33° C | 63% | 1015.8 hPa | 0 mm | - | - | - |
| 1777813221 | 12.78° C | 64% | 1016 hPa | 0 mm | - | - | - |
| 1777812622 | 12.22° C | 64% | 1016 hPa | 0 mm | - | - | - |
| 1777812021 | 12.22° C | 65% | 1015.8 hPa | 0 mm | - | - | - |
| 1777811422 | 11.67° C | 66% | 1015.7 hPa | 0 mm | - | - | - |
| 1777810821 | 11.11° C | 66% | 1015.8 hPa | 0 mm | - | - | - |
| 1777810221 | 10.56° C | 67% | 1015.7 hPa | 0 mm | - | - | - |
| 1777809621 | 10.56° C | 68% | 1015.7 hPa | 0 mm | - | - | - |
| 1777809021 | 10° C | 68% | 1015.8 hPa | 0 mm | - | - | - |
| 1777808421 | 10° C | 68% | 1015.8 hPa | 0 mm | - | - | - |
| 1777807821 | 10° C | 67% | 1016 hPa | 0 mm | - | - | - |
* Rain latest hour (hover to see other rain measurements)
** Current wind speed in m/s (hover to see current wind gust speed)